Вернуться в каталог

FENGYUN 1C DEB

АктивенSSO
NORAD 29851·DEBRIS·🇨🇳 China

Запущен May 10, 1999 с Taiyuan Satellite Launch Center

Loading…

Ближайшие Пролёты (ближайшие 24 часа)

TLE

СвежийSource: Space-Track

Эпоха: Sep 14, 2026, 09:25 UTC

1 29851U 99025EV  26257.39239910  .00000237  00000-0  23712-3 0  9998
2 29851  99.5485 308.0649 0141420 219.3374 206.8088 13.83781329991790

Отслеживайте FENGYUN 1C DEB в реальном времени с AllMySat

Download on the App Store